Temperature
27 27 27 27 28 29 29 28 28 28 29 29 29 28 28 28 28 28 27 26 25 24 23 21 20 19 19 18 18 17 17 17 17 16 16 16 16 16 16 16 16 16 15 15
27 27 28 29 29 29 28 28 28 29 30 29 28 28 28 27 27 27 26 25 25 23 22 21 20 19 18 18 17 17 17 17 16 16 16 16 16 16 16 16 16 16 15 15
27 28 29 29 29 29 29 28 28 28 29 29 28 27 27 27 27 26 26 25 24 23 22 21 20 19 19 18 17 17 17 17 16 16 16 16 16 16 16 16 16 15 15 15
27 29 29 29 28 29 28 30 29 28 28 28 28 26 25 26 26 26 25 25 24 23 22 21 20 19 19 18 17 17 17 16 16 16 16 16 16 16 16 16 15 15 15 15
28 29 28 28 29 29 29 30 29 28 28 27 27 26 25 26 25 25 25 25 24 23 22 21 20 19 18 18 17 17 16 16 16 16 16 16 16 16 16 15 15 15 15 15
28 29 29 29 30 30 30 29 28 28 27 25 26 25 25 26 25 25 25 24 24 23 22 21 20 19 19 18 17 17 16 16 16 16 15 16 16 15 15 15 15 15 15 15
27 28 29 29 29 29 29 27 25 25 25 25 26 25 24 26 26 26 25 24 23 23 22 21 20 19 18 18 17 17 16 16 16 15 15 15 15 15 15 15 15 15 15 15
26 27 28 29 28 28 28 27 25 24 25 25 25 24 24 25 26 26 25 24 23 22 21 20 20 19 19 18 17 16 16 16 16 15 15 15 15 15 15 15 15 15 15 15
27 27 29 29 29 28 27 27 28 26 25 25 25 24 24 25 25 25 24 24 23 22 21 20 20 19 18 18 17 17 16 16 15 15 15 15 15 15 15 15 15 15 15 14
27 26 27 28 29 28 28 28 27 25 24 24 24 24 23 23 23 24 24 24 23 22 21 20 20 19 18 18 17 16 16 16 15 15 15 15 15 15 15 15 15 15 15 14
27 25 26 27 27 27 27 27 26 26 25 24 23 23 24 23 24 23 24 23 23 22 21 20 20 19 18 18 17 16 16 16 15 15 15 15 15 15 15 15 15 15 14 14
26 26 25 26 27 28 27 26 26 24 24 24 24 22 24 24 24 24 24 23 22 22 21 20 20 19 18 17 17 16 16 16 15 15 15 15 15 15 15 15 14 14 14 14
25 24 23 25 26 26 26 26 26 25 24 24 23 22 23 23 24 24 23 23 22 21 21 20 19 19 18 17 17 16 16 16 15 15 15 15 15 15 15 14 14 14 14 14
25 24 24 24 25 25 25 25 25 25 24 23 23 22 22 22 23 23 23 22 22 21 20 20 19 18 18 17 17 16 16 16 16 15 15 15 15 15 14 14 14 14 14 14
25 24 24 25 26 26 26 26 26 25 24 24 23 22 22 22 23 23 22 22 21 20 20 19 18 18 17 17 16 16 16 16 16 15 15 15 15 14 14 14 14 14 14 14
25 23 24 24 25 26 26 26 26 26 25 25 24 22 23 24 23 23 22 21 21 20 19 19 18 17 17 17 16 16 16 15 15 15 15 15 14 14 14 14 14 14 14 14
24 23 23 23 24 24 24 25 26 25 25 25 23 23 23 23 23 22 22 21 21 20 19 18 17 17 16 16 16 15 15 15 15 15 15 14 14 14 14 14 14 14 14 13
23 22 22 22 23 22 24 27 26 25 25 25 24 24 24 23 23 22 21 21 20 19 18 18 17 16 16 16 15 15 15 15 15 14 14 14 14 14 14 14 14 13 13 13
24 23 22 22 22 23 24 25 25 24 24 24 23 24 24 23 22 21 21 20 20 19 18 17 17 16 16 15 15 15 15 14 14 14 14 14 14 14 14 13 13 13 13 13
24 23 22 22 21 21 22 25 25 24 22 23 23 23 23 22 22 21 20 20 19 18 17 17 16 16 15 15 15 14 14 14 14 14 14 14 14 14 13 13 13 13 13 13
22 22 22 22 21 22 23 24 25 22 21 21 22 21 21 21 20 19 19 19 18 18 17 17 16 16 15 15 14 14 14 14 14 14 14 13 13 13 13 13 13 13 13 13
22 22 21 21 21 20 22 22 21 20 20 21 20 20 20 20 19 19 19 18 18 17 17 16 16 15 15 14 14 14 14 14 14 13 13 13 13 13 13 13 13 13 13 13
21 21 21 20 20 20 20 19 19 20 20 20 20 19 19 19 19 19 18 18 17 17 16 16 15 15 15 14 14 14 14 13 13 13 13 13 13 13 13 13 13 13 13 13
20 21 21 20 20 20 20 19 19 19 19 19 19 19 19 18 18 18 18 17 17 16 16 15 15 15 15 14 14 14 13 13 13 13 13 13 13 13 13 13 13 13 13 13
19 20 20 19 19 19 19 19 18 18 18 18 18 18 18 18 18 17 17 17 17 16 16 15 15 15 14 14 14 13 13 13 13 13 13 13 13 13 13 13 13 13 13 13
18 18 18 18 18 18 18 18 18 18 18 18 17 17 17 17 17 17 17 16 16 16 15 15 15 15 14 14 14 13 13 13 13 13 12 12 13 13 13 13 13 13 13 13
Wind_Speed
13 13 14 14 16 15 14 13 12 10 10 11 9 6 5 4 6 6 6 7 7 6 7 8 8 7 7 7 6 5 4 4 3 2 2 1 1 1 1 2 2 2 1 1
12 16 16 14 15 15 16 15 13 10 8 10 8 8 7 6 6 5 6 6 7 7 7 8 8 8 7 7 6 5 4 4 3 3 1 2 1 1 2 1 2 3 2 0
16 14 14 15 15 15 15 14 12 11 9 11 10 9 6 4 5 5 5 6 6 6 8 8 8 7 7 7 7 6 5 4 3 3 2 1 1 0 1 2 2 2 2 2
16 15 14 15 14 15 14 12 11 13 12 10 9 7 7 7 6 5 5 5 7 8 8 9 9 8 7 7 7 6 5 5 3 3 2 2 1 1 1 1 2 3 2 2
15 14 15 15 14 14 13 11 12 13 14 11 9 8 7 7 6 6 7 6 5 7 8 9 9 9 8 8 7 6 6 5 3 2 2 1 1 1 1 2 3 2 2 2
16 14 13 13 13 13 11 11 12 13 10 11 11 9 7 4 6 7 8 7 6 7 8 9 9 8 8 8 7 7 6 5 4 2 2 1 1 1 2 2 2 1 2 2
16 15 13 13 13 10 10 9 7 8 8 8 7 6 4 1 3 6 9 8 7 7 8 8 9 9 8 7 7 6 6 4 4 3 2 1 1 1 1 1 1 1 1 2
13 11 11 11 12 9 10 11 8 8 8 6 6 4 2 2 3 5 7 9 9 8 8 8 8 8 8 8 7 6 5 4 4 3 2 1 1 1 1 1 1 2 1 2
9 9 7 8 10 10 10 11 10 9 10 8 5 3 2 4 4 5 6 9 10 10 9 8 8 8 7 7 7 6 5 4 3 3 3 3 3 2 1 2 1 1 1 2
8 8 9 8 8 11 11 10 6 6 6 7 4 4 3 4 3 4 5 6 8 10 10 9 8 6 6 7 7 6 6 5 4 3 3 3 3 3 2 2 2 1 1 1
9 9 8 7 8 9 9 9 8 6 6 6 5 2 2 4 4 4 6 7 7 8 9 8 8 7 7 7 7 5 5 5 4 3 2 1 2 3 2 2 2 2 2 1
7 7 9 9 9 8 8 8 7 6 7 8 5 1 1 2 4 3 5 7 7 7 7 8 8 7 7 6 6 5 4 4 4 4 3 2 2 2 2 2 2 2 2 2
4 4 7 8 7 5 6 6 7 6 5 7 5 2 1 1 2 4 5 6 7 6 7 7 7 6 6 5 4 5 4 4 4 4 3 3 3 2 2 2 2 2 2 2
4 6 8 9 7 5 7 9 8 6 5 6 4 2 3 2 2 4 4 5 6 7 6 6 6 5 5 5 4 3 3 3 3 3 3 3 3 3 2 2 2 2 3 3
4 8 9 11 11 10 10 9 9 8 8 7 4 3 3 3 3 4 5 6 6 6 5 5 5 4 4 4 3 3 3 2 2 2 3 3 3 3 3 2 3 3 3 3
4 6 9 12 11 11 10 10 9 8 6 6 2 2 1 3 4 4 4 6 6 6 5 5 5 4 3 3 3 2 2 2 2 2 3 3 3 3 3 3 2 2 2 2
4 5 8 10 9 12 10 6 5 4 4 4 3 3 2 2 3 3 3 4 5 5 4 4 4 3 3 2 2 2 1 2 2 2 2 3 3 3 3 3 2 2 2 2
6 6 6 8 9 10 5 3 2 3 2 1 1 3 2 3 4 4 3 2 4 4 4 3 3 3 2 2 2 1 2 2 2 2 2 2 3 3 2 2 2 2 2 3
7 7 6 6 8 6 3 3 4 3 1 1 1 1 2 4 4 4 4 3 3 4 3 3 4 4 3 3 2 2 2 2 2 3 2 2 2 3 3 2 2 2 2 2
7 7 7 7 8 6 3 4 4 3 1 4 3 2 1 2 0 2 4 3 4 4 4 4 4 4 3 3 2 2 2 2 2 2 2 2 2 3 3 3 2 2 3 3
9 9 9 9 8 2 4 5 5 3 1 5 4 3 4 3 3 3 3 4 4 5 5 4 4 4 3 3 3 2 2 2 2 2 2 2 2 3 3 3 3 3 3 3
6 6 7 7 7 3 6 4 3 3 4 5 5 5 5 4 4 3 2 4 5 5 4 4 3 3 3 3 3 3 2 2 2 2 2 2 3 4 3 3 3 3 3 4
3 2 2 1 1 4 7 6 6 5 4 4 4 4 3 2 2 2 2 3 4 4 4 4 4 3 3 3 2 3 2 2 2 2 2 2 2 3 3 3 3 3 3 4
2 3 1 1 2 2 5 5 5 5 4 4 4 4 4 2 2 2 1 2 3 4 4 3 3 3 2 2 2 1 2 2 2 1 1 2 3 4 4 4 3 3 3 3
4 4 2 0 1 2 4 4 4 4 4 4 3 3 3 3 2 1 1 1 3 3 3 3 3 3 2 2 2 1 0 1 1 1 2 3 4 4 3 3 2 2 1 1
4 4 3 2 3 3 3 4 4 3 4 3 3 3 3 3 2 2 1 1 1 3 3 3 3 2 2 2 1 1 1 1 1 1 2 3 3 3 3 3 2 0 1 3
Wind_Direction
231 233 236 237 241 252 263 265 267 260 252 257 252 244 230 217 220 209 192 181 173 159 146 137 136 143 138 136 139 149 145 134 141 148 166 182 184 189 153 158 136 122 119 89
237 238 244 250 252 254 259 263 263 271 263 260 255 247 239 219 222 217 186 177 173 155 148 138 138 144 143 144 146 147 141 143 150 145 174 192 173 206 160 121 126 131 123 92
238 244 246 248 248 253 256 264 268 273 267 259 257 259 252 235 222 210 193 176 167 164 152 151 150 149 150 149 154 155 145 141 159 150 170 145 132 237 116 131 127 134 138 135
248 249 248 251 250 254 262 265 266 272 270 261 250 256 245 229 209 196 202 194 172 169 159 157 153 153 151 148 149 142 140 140 153 149 152 156 159 189 160 135 131 142 134 125
248 247 248 250 251 255 264 270 269 268 267 272 262 256 241 208 203 200 197 194 177 160 155 155 153 150 144 143 141 140 135 137 139 146 149 168 157 130 95 97 115 138 140 148
257 258 254 255 254 249 259 269 272 269 263 256 250 255 253 215 205 192 181 179 170 157 154 148 143 140 140 140 136 137 137 138 138 154 154 157 138 101 87 87 107 152 133 133
249 251 248 251 256 248 250 256 265 261 249 255 260 249 249 213 183 170 162 161 150 149 141 141 144 143 144 143 138 135 135 142 152 160 154 161 167 155 132 134 154 141 123 121
245 242 232 237 247 248 239 243 248 263 268 267 257 242 189 176 116 126 142 140 138 144 144 147 147 146 149 142 139 135 136 142 156 163 163 163 144 164 153 169 154 118 95 106
260 257 242 248 248 244 247 249 263 269 275 272 244 206 161 102 111 130 142 146 152 152 152 147 146 149 148 144 140 136 134 139 149 161 166 169 161 179 175 153 153 116 97 107
271 270 255 245 248 238 252 258 268 267 276 278 250 241 173 161 146 135 159 151 148 149 150 144 146 149 146 142 138 140 142 149 156 159 182 181 167 170 163 138 141 123 112 83
260 266 259 245 236 243 247 251 251 257 266 273 268 243 125 146 135 156 163 155 149 150 151 148 146 149 143 138 144 150 150 150 158 160 159 156 172 171 166 159 150 136 125 132
260 267 264 247 239 243 248 257 258 261 272 270 276 281 37 93 135 155 141 134 137 141 147 147 146 145 143 144 147 145 150 160 166 161 161 164 158 163 166 175 168 159 166 172
255 258 256 250 237 232 250 261 273 275 269 276 280 187 156 38 88 90 115 131 136 134 141 144 140 138 142 145 146 150 162 171 177 170 168 157 156 164 182 186 178 173 176 177
247 257 258 255 258 250 242 247 254 258 267 278 281 227 204 202 128 108 116 129 138 136 133 134 137 138 141 142 149 159 171 171 174 166 166 160 169 178 191 195 190 188 198 196
256 261 266 272 272 257 250 247 242 243 256 263 240 244 216 185 148 134 132 129 131 134 135 133 138 139 146 149 155 163 174 167 163 165 166 162 168 178 179 189 207 201 212 212
248 269 274 272 270 273 265 254 241 247 253 256 238 266 192 122 119 122 134 143 147 152 151 144 140 141 143 146 160 165 170 156 164 187 187 173 166 168 175 190 212 209 212 220
252 258 273 276 278 277 265 261 248 258 267 257 251 224 197 124 112 123 131 147 155 153 145 135 135 142 141 139 142 162 171 158 181 201 197 179 180 190 196 207 206 201 213 214
255 261 262 262 264 260 259 283 248 257 287 328 145 172 184 107 99 105 126 143 145 140 138 135 145 147 144 144 144 145 157 173 191 202 220 209 201 200 197 200 210 206 210 213
238 245 257 262 262 255 257 285 296 280 297 36 35 35 112 99 108 111 107 111 122 129 124 131 144 148 145 151 150 162 182 193 211 218 219 222 209 197 203 211 212 212 216 221
228 233 245 253 263 260 282 315 306 260 227 20 27 20 55 88 81 98 91 103 111 115 120 128 141 139 140 146 151 181 198 217 233 242 237 226 223 213 212 215 219 227 229 229
219 226 237 252 256 265 329 326 304 263 8 6 22 18 33 43 56 71 86 104 113 117 126 136 136 142 149 157 162 186 200 222 248 256 248 236 239 234 217 209 225 233 236 231
238 239 239 250 251 254 359 1 20 33 36 30 29 27 35 56 80 90 97 121 127 132 138 138 136 148 151 162 175 191 213 238 247 257 258 248 238 248 232 207 229 235 244 240
268 286 262 243 203 72 51 55 50 39 30 26 21 16 13 43 48 62 101 134 139 144 144 143 150 150 155 168 182 200 225 247 249 254 263 251 241 243 229 215 223 237 241 252
313 327 247 159 138 100 73 62 43 28 16 19 19 12 5 1 4 22 43 140 145 151 147 148 159 169 169 174 189 208 220 232 252 255 264 262 248 233 224 230 222 220 236 249
323 324 303 268 23 47 46 35 18 6 5 11 13 1 351 355 351 22 33 112 142 153 159 165 174 175 176 169 173 179 196 210 258 270 265 264 260 247 230 223 238 238 239 211
339 348 340 347 351 321 329 342 349 352 349 345 346 348 344 340 335 350 352 35 145 157 159 162 166 173 184 190 182 158 174 213 255 257 263 258 258 259 249 230 221 345 198 188
Height
1473 1474 1472 1467 1464 1462 1461 1462 1464 1459 1453 1455 1456 1459 1459 1461 1463 1465 1468 1471 1474 1477 1480 1482 1485 1488 1490 1491 1492 1494 1495 1496 1497 1497 1498 1499 1500 1501 1502 1502 1503 1503 1504 1505
1471 1469 1462 1459 1458 1458 1459 1460 1460 1454 1449 1451 1454 1457 1455 1458 1461 1463 1465 1469 1472 1476 1478 1481 1484 1487 1488 1490 1491 1493 1494 1495 1496 1497 1498 1499 1500 1500 1501 1501 1501 1502 1502 1503
1466 1461 1456 1456 1456 1458 1457 1458 1457 1458 1451 1449 1454 1461 1458 1456 1459 1462 1463 1466 1470 1474 1476 1480 1482 1485 1487 1489 1490 1492 1493 1494 1495 1496 1497 1498 1499 1500 1501 1501 1501 1502 1502 1503
1458 1453 1453 1454 1454 1453 1457 1448 1451 1453 1457 1458 1456 1471 1463 1457 1458 1460 1463 1466 1468 1471 1475 1478 1480 1483 1486 1488 1489 1491 1492 1493 1494 1495 1496 1497 1498 1499 1500 1500 1501 1501 1502 1502
1454 1449 1451 1452 1450 1448 1450 1445 1447 1449 1454 1459 1457 1467 1465 1454 1459 1459 1460 1463 1467 1469 1473 1476 1479 1482 1485 1487 1488 1489 1490 1492 1493 1494 1495 1496 1498 1499 1500 1500 1500 1500 1501 1501
1448 1445 1445 1445 1443 1443 1444 1447 1448 1448 1454 1471 1461 1467 1466 1454 1454 1455 1457 1461 1466 1468 1472 1475 1478 1481 1484 1486 1487 1489 1490 1491 1492 1493 1495 1496 1497 1498 1499 1499 1499 1500 1501 1501
1452 1445 1442 1443 1445 1443 1445 1457 1470 1472 1471 1470 1455 1462 1464 1450 1448 1451 1455 1460 1464 1468 1471 1474 1478 1481 1483 1485 1487 1488 1489 1490 1492 1493 1494 1495 1496 1497 1498 1499 1499 1500 1500 1500
1455 1453 1441 1439 1442 1447 1446 1452 1470 1481 1476 1468 1459 1464 1458 1450 1450 1452 1455 1459 1464 1468 1470 1474 1478 1480 1482 1484 1486 1487 1488 1490 1491 1492 1493 1494 1495 1496 1497 1498 1499 1499 1499 1499
1449 1449 1435 1436 1437 1441 1447 1448 1444 1457 1460 1467 1463 1459 1455 1452 1452 1453 1456 1459 1463 1467 1471 1474 1477 1479 1482 1484 1485 1487 1488 1489 1490 1491 1493 1494 1495 1495 1496 1497 1498 1498 1498 1498
1444 1451 1440 1436 1437 1438 1440 1441 1449 1459 1474 1476 1468 1464 1463 1458 1457 1455 1457 1459 1462 1466 1469 1473 1476 1479 1481 1483 1485 1486 1487 1488 1489 1491 1492 1493 1494 1495 1496 1496 1497 1497 1498 1498
1441 1451 1446 1440 1443 1444 1444 1446 1448 1453 1456 1472 1475 1472 1454 1454 1454 1455 1457 1459 1462 1465 1469 1472 1476 1478 1481 1483 1484 1486 1487 1488 1489 1490 1491 1492 1493 1494 1495 1495 1496 1497 1497 1497
1443 1447 1451 1444 1436 1436 1439 1444 1448 1461 1463 1458 1465 1474 1452 1452 1453 1455 1456 1459 1462 1465 1469 1472 1475 1478 1480 1482 1484 1485 1486 1488 1489 1490 1490 1491 1492 1493 1494 1494 1495 1496 1496 1496
1445 1451 1461 1454 1447 1441 1443 1444 1444 1448 1455 1460 1467 1473 1454 1454 1453 1454 1456 1459 1462 1465 1468 1471 1474 1477 1480 1482 1484 1485 1486 1487 1488 1489 1489 1490 1491 1492 1492 1493 1494 1495 1495 1495
1443 1448 1455 1461 1452 1445 1447 1445 1444 1450 1459 1462 1462 1464 1457 1456 1454 1455 1458 1460 1462 1465 1468 1471 1474 1477 1479 1481 1483 1484 1486 1487 1487 1488 1488 1489 1489 1490 1491 1492 1493 1493 1493 1494
1443 1449 1447 1443 1439 1438 1440 1441 1442 1446 1449 1455 1458 1460 1456 1454 1453 1456 1458 1460 1462 1466 1468 1471 1474 1476 1479 1480 1482 1483 1484 1485 1486 1486 1487 1487 1488 1489 1490 1490 1491 1491 1492 1492
1443 1450 1448 1447 1440 1437 1438 1436 1437 1440 1443 1446 1451 1456 1450 1451 1453 1456 1458 1460 1463 1466 1469 1471 1473 1475 1477 1479 1481 1482 1483 1484 1484 1485 1486 1486 1486 1487 1488 1488 1489 1489 1489 1490
1444 1450 1454 1453 1444 1442 1446 1437 1437 1439 1439 1444 1452 1454 1450 1452 1454 1456 1459 1461 1463 1466 1469 1471 1473 1474 1476 1478 1479 1480 1481 1482 1483 1484 1484 1485 1485 1486 1486 1486 1486 1487 1487 1488
1446 1450 1452 1453 1452 1460 1444 1430 1433 1437 1440 1441 1444 1447 1449 1451 1454 1457 1459 1461 1463 1466 1468 1470 1472 1474 1476 1477 1478 1479 1480 1481 1481 1482 1483 1483 1484 1484 1484 1484 1484 1485 1485 1485
1441 1446 1451 1454 1455 1451 1441 1435 1436 1440 1445 1444 1446 1447 1449 1451 1455 1458 1460 1461 1463 1466 1468 1470 1471 1473 1474 1475 1477 1478 1478 1479 1480 1480 1481 1481 1482 1482 1482 1482 1482 1483 1483 1483
1439 1441 1449 1452 1458 1460 1449 1437 1436 1440 1449 1448 1447 1449 1450 1452 1455 1458 1460 1462 1463 1465 1467 1469 1471 1472 1473 1474 1475 1476 1477 1478 1478 1479 1479 1479 1480 1480 1480 1480 1481 1481 1481 1481
1443 1444 1447 1450 1454 1451 1445 1440 1438 1451 1458 1452 1451 1452 1453 1454 1457 1460 1461 1462 1464 1465 1466 1468 1470 1471 1472 1473 1474 1475 1475 1476 1477 1477 1477 1477 1478 1478 1478 1479 1479 1479 1479 1479
1442 1445 1448 1449 1455 1460 1447 1445 1450 1455 1454 1453 1454 1455 1456 1457 1458 1460 1461 1462 1463 1464 1466 1467 1469 1470 1471 1472 1473 1473 1474 1475 1476 1476 1475 1475 1476 1476 1477 1477 1477 1477 1477 1476
1441 1445 1445 1450 1455 1453 1451 1452 1454 1455 1455 1456 1456 1456 1457 1458 1459 1460 1461 1462 1463 1464 1466 1467 1468 1469 1470 1471 1471 1472 1472 1473 1473 1473 1473 1474 1474 1474 1475 1475 1475 1475 1475 1474
1444 1444 1445 1448 1451 1452 1453 1455 1456 1457 1457 1457 1457 1457 1458 1459 1459 1460 1460 1461 1462 1464 1465 1466 1467 1468 1469 1470 1470 1471 1471 1471 1471 1471 1471 1472 1472 1472 1472 1472 1473 1473 1473 1472
1450 1448 1448 1451 1453 1453 1454 1456 1457 1457 1458 1458 1458 1458 1459 1459 1459 1460 1460 1461 1462 1463 1464 1465 1466 1467 1468 1468 1469 1469 1469 1469 1469 1470 1469 1470 1470 1470 1470 1470 1470 1470 1470 1470
1453 1454 1454 1456 1456 1456 1457 1456 1456 1456 1457 1458 1458 1458 1459 1459 1459 1459 1460 1461 1461 1462 1463 1464 1465 1465 1466 1467 1467 1467 1467 1467 1468 1467 1468 1468 1469 1469 1469 1468 1468 1468 1468 1468